Regional Weather Roundup
Issued by NWS Wakefield, VA

Home | Current Version | Previous Version | Text Only | Print | Product List | Glossary On
Versions: 1 2 3 4 5 6 7 8 9 10 11 12 13 14 15 16 17 18 19 20 21 22 23 24 25 26 27 28 29 30 31 32 33 34 35 36 37 38 39 40 41 42 43 44 45 46 47 48 49 50
000
ASUS41 KAKQ 192015
RWRAKQ

REGIONAL WEATHER ROUNDUP
NATIONAL WEATHER SERVICE WAKEFIELD VA
400 PM EDT THU APR 19 2018

Note: "fair" indicates few or no clouds below 12,000 feet with no
significant weather and/or obstructions to visibility. * = Denotes
station may not report precipitation (e.g., rain,snow,etc.),
thunder or fog.

VAZ042-051-052>054-056-192100-
NORTHERN VIRGINIA

CITY           SKY/WX    TMP DP  RH WIND       PRES   REMARKS
WASH NATIONAL  PTSUNNY   56  29  35 W25G36    29.93R
DULLES         PTSUNNY   53  29  39 NW29G38   29.94R
FORT BELVOIR   FAIR      55  28  36 NW28G41   29.93R
QUANTICO       PTSUNNY   57  33  40 N22G29    29.95R
FREDERICKSBRG* PTSUNNY   58  34  40 NW18G33   29.93R
STAFFORD*      FAIR      56  32  39 NW20G32   29.98R
WARRENTON      FAIR      56  27  33 NW22G32   29.94R
CULPEPER*      FAIR      56  28  33 NW17G26   29.97R
MANASSAS*      PTSUNNY   55  31  39 NW20G31   29.96R
LEESBURG*      PTSUNNY   50  32  50 NW23G33   29.97R
WINCHESTER     CLOUDY    46  30  53 NW26G36   30.01R
FRONT ROYAL*   CLOUDY    48  30  49 NW15G25   29.98R
LURAY*         CLOUDY    52  28  40 W8G23     30.00R
$$

VAZ048-049-060>072-079>083-192100-
CENTRAL AND SOUTH CENTRAL VIRGINIA

CITY           SKY/WX    TMP DP  RH WIND       PRES   REMARKS
RICHMOND       FAIR      64  33  31 NW30G40   29.88R
CHESTERFIELD*  FAIR      63  34  33 NW26G33   29.90R
PETERSBURG*    FAIR      64  31  28 NW21G28   29.89R
HANOVER        FAIR      61  31  32 W25G38    29.92R
TAPPAHANNOCK*  FAIR      61  33  35 W16G26    29.89R
QUINTON*       FAIR      64  36  35 NW18G30   29.86R
CHARLOTTSVILLE FAIR      57  30  35 NW9G21    29.99R
GORDONSVILLE*  FAIR      55  29  36 NW12G26   29.97R
ORANGE*        FAIR      55  32  41 W17G29    29.97R
LOUISA*        PTSUNNY   57  29  34 NW14G29   29.99R
BUMPASS*       MOCLDY    57  26  30 NW10G26   29.94R
FARMVILLE*     FAIR      60  27  27 NW5       29.97R
CREWE*         FAIR      61  33  35 NW24      29.95R
FORT PICKETT*  FAIR      62  33  34 NW24G32   29.93R
CHASE CITY*    FAIR      58  32  37 NW13G24   29.97R
CLARKSVILLE*   FAIR      59  32  36 NW15G28   29.95R
SOUTH HILL*    FAIR      62  35  37 NW15G24   29.99R
LAWRENCEVILLE* FAIR      64  33  30 NW15G22   29.91R
EMPORIA*       FAIR      64  36  34 W16G25    29.91R
$$

VAZ088>098-192100-
SOUTHEAST VIRGINIA

CITY           SKY/WX    TMP DP  RH WIND       PRES   REMARKS
NORFOLK        CLOUDY    55  46  71 N21G30    29.85R
VIRGINIA BEACH PTSUNNY   59  47  64 N28G36    29.83R
NORFOLK NAVAL  PTSUNNY   55  46  71 N16G30    29.87R
WEST POINT*    FAIR      65  34  31 W17G25    29.86R
SALUDA*        MOCLDY    60  43  54 NW16G22   29.85R
NEWPORT NEWS   CLOUDY    62  45  53 N15       29.84R
LANGLEY AFB    MOSUNNY   57  47  68 NE18G26   29.85R
FORT EUSTIS    CLOUDY    64  46  51 NW8       29.82R
WILLIAMSBURG*  FAIR      70  34  26 NW17G26   29.85R
HR EXEC AP*    CLOUDY    68  40  35 W8G18     29.83R
FRANKLIN*      CLOUDY    68  40  35 NW21G31   29.85R
US460-WAKEFLD  PTSUNNY   68  38  33 NW16G24   29.86R
$$

VAZ020-022-025-037-045-192100-
WEST CENTRAL AND SOUTHWEST VIRGINIA

CITY           SKY/WX    TMP DP  RH WIND       PRES   REMARKS
STAUNTON*      CLOUDY    48  27  44 W16G25    30.01S
WAYNESBORO*    CLOUDY    48  28  45 W12G24    30.00R
HOT SPRINGS VA CLOUDY    32  26  78 W18G30    29.97S WCI  21
LYNCHBURG      FAIR      51  28  41 W12G24    30.03R
DANVILLE       FAIR      56  33  42 NW16G32   30.03R
SOUTH BOSTON*  FAIR      58  31  36 NW28G35   30.00R
MARTINSVILLE   FAIR      54  29  39 NW21G28   30.09R
ROANOKE        PTSUNNY   49  31  49 NW20G28   30.09R
BLACKSBURG     CLOUDY    41  31  68 NW12G20   30.12R
DUBLIN*        CLOUDY    43  31  62 NW22G30   30.11R
MARION*        CLOUDY    43  29  59 W22       30.13R
HILLSVILLE*    FAIR      42  27  54 NW24G31   30.05R
RICHLANDS*     CLOUDY    38   1  20 NW12G18   30.15R
WISE*          CLOUDY    39  30  70 NW12G20   30.19R
ABINGDON*      CLOUDY    45  29  53 NW13G25   30.16S
$$

MDZ021>025-VAZ099-100-192100-
SOUTHERN MARYLAND AND THE DELMARVA PENINSULA

CITY           SKY/WX    TMP DP  RH WIND       PRES   REMARKS
PATUXENT RIVER PTSUNNY   60  37  42 NW26G39   29.86R
BAY BRIDGE APT CLOUDY    52  36  54 NW18G32   29.90R
LEONARDTOWN    FAIR      57  32  38 W18G30    29.89R
DOVER          CLOUDY    50  43  77 NW21      29.85R
GEORGETOWN     CLOUDY    52  40  63 W12G21    29.85R
EASTON         PTSUNNY   57  36  44 NW25G31   29.89R
CAMBRIDGE        N/A     57  37  47 NW17G26   29.85S
SALISBURY      CLOUDY    53  41  63 NW15G22   29.84S
TANGIER        CLOUDY    55  45  67 NW20G26   29.86R
OCEAN CITY     CLOUDY    51  45  79 NW14      29.84R
WALLOPS ISLAND CLOUDY    53  43  68 NW10      29.85R
ACCOMACK*      CLOUDY    54  44  70 NW15G22   29.86S
$$

NCZ012>017-030>032-192100-
NORTH CENTRAL AND EASTERN NORTH CAROLINA

CITY           SKY/WX    TMP DP  RH WIND       PRES   REMARKS
ROANOKE RAPIDS FAIR      64  41  42 NW15G28   29.89R
RALEIGH        FAIR      67  39  35 NW17G30   29.93R
ELIZABETH CITY PTSUNNY   73  53  49 NW8       29.78R
AHOSKIE*       PTSUNNY   70  41  34 NW9G18    29.85R
EDENTON*       CLOUDY    76  51  41 NW24G33   29.80R
CURRITUCK*     NOT AVBL
KILL DEVIL HLS FAIR      59  48  67 E3        29.80R
MANTEO         FAIR      63  47  55 E8        29.81R
CAPE HATTERAS  FAIR      70  62  76 SW16G26   29.77S
TARBORO*       NOT AVBL
GOLDSBORO      FAIR      80  46  29 NW16G25   29.80R
WASHINGTON     CLOUDY    78  48  34 W16G22    29.78S
GREENVILLE     FAIR      73  46  38 N17G25    29.83R
NEW BERN       CLOUDY    78  55  44 W13G23    29.78R
WILMINGTON     FAIR      84  49  29 W23G32    29.80S
$$

VAZ048-192100-
ELSEWHERE

CITY           SKY/WX    TMP DP  RH WIND       PRES   REMARKS
HARRISBURG PA  CLOUDY    45  30  55 NW20G28   29.91R
BALTIMORE      PTSUNNY   52  31  44 NW22G33   29.91R
ANNAPOLIS      PTSUNNY   55  33  43 NW13G29   29.89R
ANDREWS AFB    FAIR      53  29  39 W25G37    29.90R
PHILADELPHIA   CLOUDY    47  31  53 NW24G31   29.86R
HENDERSON NC   FAIR      59  32  35 NW20G26   29.95R
GREENSBORO     FAIR      59  33  37 N17G29    30.02R
ROCKY MOUNT    FAIR      73  42  32 NW21G33   29.85R
$$

VAZ100-192100-
MARINE

STATION/POSITION TIME  TEMP    WIND        PRES    WAVE   SWELL
                       AIR SEA DIR/SP/G            HT/PER HT/PER
                 (UTC) (F)     (DEG/KT/KT) (MB)    (FT/S) (FT/S)
BRANDYWINE LGT   1936   49     320/ 22/ 27 1010.4R
CAPE MAY NJ      1942   49 49  320/ 19/ 24 1009.6R
LEWES DE         1942   50 49  320/ 21/ 25 1009.9R
15NM E FENWICK I 1950   48 46  310/ 17/ 23 1010.2R   4/ 7   2/13
OCEAN-CITY-INLET 1942   51 49  330/ 15/ 20 1010.8R
WACHAPREAGUE VA  1942   52 61  340/  4/ 12 1010.9S
THOMAS POINT MD  2000   51 50  320/ 25/ 29 1013.5R
GOOSES REEF MD   2000   54     340/ 23/ 31 1011.9
COVE POINT MD    1942   55     320/ 20/ 30 1011.8R
SOLOMONS ISLAND  1942   56 52  320/ 19/ 28 1011.0R
BISHOPS HEAD MD  1942   54 56  320/ 15/ 18 1011.4R
PINEY POINT MD   1942          340/ 27/ 31   N/A
POTOMAC MD       2000   55 52  320/ 17/ 21 1012.3    1/ 2
CAMBRIDGE MD     1942   57 54              1011.7R
LEWISETTA VA     1942   56 55  340/ 15/ 20 1011.3R
RAPPAHANNOCK LGT 1942          340/ 21/ 24 1011.5R
YORK RVR RNG VA  1942   56      10/ 17/ 19 1010.9R
YORKTOWN VA      1942   60 56  340/ 17/ 21 1010.1R
DOMINION TERM VA 1942   61      90/  3/ 23 1010.3R
KIPTOPEKE VA     1942      54   10/ 18/ 25   N/A
CAPE HENRY VA    1942   53     350/ 29/ 39   N/A
WILLOUBY STN VA  1942   56      10/ 23/ 26 1010.2R
S CRANEY ISL VA  1942   67     330/ 19/ 25 1008.9R
CAPE HENRY BUOY  2000      51                N/A     2/13   2/13
64NM E OF VA BCH 1950   53 52  350/  8/ 10 1009.5R   5/ 8   5/ 8
DUCK PIER NC     1942   54 50  130/ 10/ 10 1008.5R
44100 DUCK FRF   1945      51                N/A     3/ 8   2/15
44056 DUCK FRF   2000      51                N/A     2/14   2/14
OREGON INLET NC  1942   59 64   60/  6/  8 1008.8R
HATTERAS NC      1942   68 63  230/ 17/ 21 1008.0F
DIAMOND SHLS NC  2000   69 68  230/ 23/ 29 1008.5
CAPE LOOKOUT NC  2000          220/ 17/ 21 1009.0S
$$



USA.gov is the U.S. government's official web portal to all federal, state and local government web resources and services.